Wind_Speed
3 2 3 3 4 4 4 3 4 4 4 3 3 4 4 5 5 5 6 6 7 8 8 9 9 9 9 9 9 9 8 7 7 6 6 6 6 6 6 6 6 6 5 6 6 5 5 5 5
3 3 3 3 4 4 3 3 4 4 3 3 3 4 4 4 4 5 5 6 6 7 8 8 8 9 9 10 10 10 10 9 8 8 7 7 7 7 7 7 8 8 7 8 7 6 6 6 6
4 4 4 4 4 4 3 3 4 3 3 3 3 3 4 3 4 4 4 5 6 7 7 8 8 9 10 11 11 11 11 10 10 9 9 9 8 8 8 8 9 9 9 8 8 7 7 7 7
4 4 4 4 5 4 4 3 3 2 2 2 3 3 3 3 3 4 4 4 5 6 7 8 8 9 9 10 11 11 12 11 11 10 10 10 10 9 9 9 9 9 9 9 8 8 8 8 8
4 3 4 4 4 4 3 3 3 2 2 2 2 2 2 3 3 3 4 4 5 5 6 7 7 8 8 8 9 10 11 11 11 11 11 10 10 10 9 9 9 9 9 9 8 8 8 8 8
4 3 4 4 4 3 2 2 2 2 2 2 2 2 2 3 3 3 3 4 4 5 5 6 6 6 6 7 7 8 9 10 11 11 10 11 11 10 10 10 10 10 10 10 10 10 9 9 9
3 3 3 4 3 3 2 2 2 2 2 2 2 2 2 2 3 3 3 3 4 4 4 5 5 5 5 5 5 6 8 9 10 10 10 11 11 11 11 11 11 11 11 10 10 10 10 10 10
4 4 3 3 3 2 2 2 2 1 2 2 2 2 2 3 3 4 4 3 3 3 4 4 4 5 5 4 4 5 6 7 8 9 10 11 11 11 11 11 11 12 12 12 11 11 11 11 11
5 4 4 3 3 2 2 1 1 1 2 2 2 2 2 3 3 4 3 3 4 4 4 5 5 4 4 5 5 5 6 7 8 9 9 10 10 10 11 11 11 12 12 13 12 12 12 12 11
5 4 4 4 3 3 2 2 2 2 2 2 2 3 3 3 3 4 3 3 3 4 4 4 4 4 4 4 5 5 6 6 7 8 8 9 10 10 10 11 11 12 12 12 12 13 12 12 12
5 4 4 4 3 3 3 3 3 3 3 3 3 3 3 4 4 4 3 3 4 4 4 3 3 4 4 4 5 5 5 6 6 7 7 8 9 10 10 10 11 11 11 12 12 13 12 13 12
5 5 5 4 4 4 3 4 3 3 3 3 4 3 4 4 3 3 4 4 4 4 3 3 3 3 3 4 5 5 5 5 6 6 7 8 8 9 9 10 10 10 10 11 11 11 12 13 13
6 6 5 4 4 4 4 4 4 4 4 4 4 3 3 3 3 3 3 4 4 4 3 3 3 4 4 4 5 5 5 6 7 7 7 8 9 9 9 9 9 9 10 10 11 11 11 12 13
6 6 6 5 5 5 5 5 4 4 4 4 3 3 3 3 3 3 3 3 3 3 3 4 4 4 5 5 5 6 6 6 6 7 7 8 8 9 9 9 9 10 10 10 11 11 11 12 12
7 7 7 7 6 6 6 5 5 4 4 4 4 4 4 3 3 3 3 3 3 4 4 4 4 5 5 5 5 6 6 7 7 7 7 8 8 9 9 10 10 10 10 11 11 11 11 11 12
8 8 8 8 7 6 6 6 5 5 5 4 4 4 4 4 4 4 4 4 4 4 4 4 5 5 5 6 6 6 6 6 6 7 7 7 8 8 8 9 9 9 9 10 11 11 11 11 11
8 8 8 8 8 8 7 6 6 6 5 5 5 5 5 4 4 4 4 4 4 4 4 5 5 6 6 6 6 6 6 7 7 7 7 7 7 7 8 8 8 8 8 9 9 10 10 11 12
8 9 9 8 8 8 8 7 7 7 6 5 5 5 5 5 5 5 5 5 5 5 5 5 6 6 6 6 7 7 7 7 7 8 8 8 8 8 8 9 8 8 9 9 9 9 10 11 11
9 9 9 8 9 9 8 8 8 8 7 6 6 6 6 6 6 6 6 6 5 5 6 6 7 7 7 7 7 7 7 7 8 8 8 8 9 9 9 10 9 9 9 9 10 10 10 10 11
9 9 9 9 10 10 10 9 9 9 8 7 7 7 7 7 7 7 7 7 7 6 6 6 7 7 7 7 7 7 8 8 8 8 8 8 9 9 10 10 10 10 10 10 10 10 10 10 11
8 8 9 9 9 10 10 10 10 9 9 8 8 8 7 8 8 8 8 8 7 7 7 7 7 7 7 8 8 8 8 8 8 8 9 9 9 9 10 10 10 10 11 11 11 10 10 11 12
8 9 9 9 9 10 10 10 10 10 10 9 9 9 9 9 9 9 8 8 8 9 9 8 8 8 9 9 9 9 9 9 9 9 9 9 9 10 11 11 11 11 11 12 12 12 12 12 12
9 9 10 10 10 10 11 12 11 11 11 10 11 11 10 10 10 10 10 10 10 10 10 10 10 10 10 10 9 9 10 10 10 10 10 10 10 11 11 11 12 12 12 13 13 13 13 13 13
10 10 11 11 12 12 12 13 12 11 11 12 12 12 12 11 11 11 11 11 11 12 12 11 11 11 11 11 11 10 11 11 11 11 11 11 11 12 12 12 13 13 13 14 14 14 14 14 14
11 11 11 12 12 12 13 13 13 12 13 13 13 14 13 13 12 12 13 13 13 13 13 12 12 12 12 12 12 12 12 12 12 12 13 13 13 13 13 13 13 14 14 14 14 14 15 15 15
13 13 13 14 14 14 14 14 13 13 13 13 14 15 14 15 14 14 14 14 14 14 14 14 14 14 14 13 14 14 14 14 13 14 14 14 14 14 14 13 14 14 15 15 15 15 15 15 15
14 14 15 16 16 16 16 15 14 14 15 15 15 16 16 15 15 15 15 15 15 15 16 16 16 15 15 15 15 15 15 15 15 15 15 15 15 15 15 15 15 15 15 16 15 16 16 16 16
16 16 16 17 17 17 16 15 15 15 15 16 16 16 16 16 16 16 16 16 16 16 17 17 17 17 17 17 17 16 17 17 16 16 16 16 16 16 16 16 16 16 16 16 16 17 17 18 18
17 18 18 18 18 17 17 16 15 16 17 17 17 17 17 18 18 17 17 18 18 18 19 18 18 18 18 18 18 18 18 18 18 18 18 17 17 17 17 17 17 17 18 18 18 19 19 19 20
18 18 18 18 18 19 19 17 16 17 18 19 18 18 18 19 20 20 19 20 20 20 20 20 20 21 20 20 20 20 19 19 19 19 19 18 18 18 18 18 18 18 18 19 20 20 21 21 21
Wind_Direction
314 316 325 335 332 326 318 313 310 306 290 280 274 267 261 254 253 251 244 237 236 237 237 232 235 236 240 243 243 244 242 246 247 245 242 243 240 234 238 236 226 226 222 220 224 233 231 227 230
309 308 314 327 326 331 326 319 308 302 292 287 275 268 266 258 254 253 245 242 239 238 238 236 239 240 244 246 246 246 244 244 245 245 244 246 245 243 245 245 237 237 238 233 237 239 244 235 235
300 299 304 313 318 323 323 311 306 294 280 278 274 268 269 261 253 255 253 249 243 239 239 242 241 243 246 248 249 248 244 243 243 244 244 247 247 246 246 246 244 241 242 239 241 239 244 241 244
296 297 307 312 318 318 309 306 311 296 275 278 281 276 275 270 266 266 262 260 259 248 244 243 243 245 250 251 251 250 244 241 241 241 243 246 247 246 246 247 247 245 244 242 245 241 242 245 247
293 299 312 316 316 315 308 302 294 280 280 278 289 291 291 291 285 277 272 268 265 256 247 245 245 249 253 255 253 247 241 238 239 241 243 244 245 247 247 246 247 247 245 249 250 244 243 245 248
296 302 309 314 312 314 316 318 310 291 289 283 290 294 290 284 284 282 277 273 265 258 253 250 249 253 257 260 253 242 235 234 236 239 241 242 242 243 246 247 247 247 248 251 250 249 247 247 249
293 297 293 302 305 311 326 335 327 311 290 286 288 293 292 279 283 286 284 281 265 259 254 251 252 259 260 262 252 236 231 233 235 236 237 238 240 242 246 247 249 250 249 251 252 248 244 247 249
291 291 289 291 293 299 315 330 335 318 299 289 284 294 292 283 281 283 282 278 275 267 260 260 263 263 260 261 257 241 236 235 234 235 236 236 238 243 246 248 252 251 251 251 252 247 244 245 247
288 283 282 281 282 286 302 315 331 313 295 285 289 293 294 293 285 279 282 281 277 273 271 271 271 267 261 260 258 251 244 241 239 237 238 239 241 244 247 248 250 252 253 252 250 247 245 246 248
286 278 274 268 267 271 285 289 289 289 290 295 299 297 294 294 290 281 284 283 275 276 277 276 269 272 266 261 258 254 253 251 247 244 242 243 244 245 245 247 251 253 252 249 248 249 247 247 249
285 277 274 268 260 265 275 278 278 284 293 301 304 301 297 292 291 287 284 282 280 280 281 281 277 274 271 269 264 260 256 253 248 244 244 244 243 243 243 246 249 251 251 249 247 249 250 249 250
283 278 274 270 259 254 262 276 281 283 292 292 293 300 303 300 296 295 289 279 276 276 271 275 277 279 280 280 275 265 257 252 247 246 246 244 242 243 243 246 250 251 252 252 252 251 252 249 248
279 272 264 263 261 262 264 272 279 283 286 283 283 291 296 297 298 298 292 286 284 282 275 272 273 274 277 278 275 266 259 253 254 253 250 248 247 246 245 247 248 250 251 254 256 253 255 248 250
276 270 262 258 261 267 270 270 269 273 276 279 282 284 282 287 296 295 286 286 289 291 286 279 272 276 281 279 277 273 266 259 256 256 255 248 247 247 248 250 251 253 254 257 260 258 256 254 256
270 267 261 257 259 264 265 264 265 265 269 274 278 283 288 290 293 290 288 291 290 293 290 284 281 283 284 283 281 276 270 263 259 258 257 250 248 247 248 251 254 257 258 260 261 259 261 259 257
266 262 259 259 261 261 260 260 266 262 263 269 275 279 287 292 291 288 286 286 291 292 288 286 286 286 285 285 284 281 273 266 263 260 259 254 251 250 250 252 256 258 260 263 262 260 262 264 262
263 259 259 260 261 259 256 254 260 264 260 264 268 271 281 289 288 288 288 286 287 286 285 284 284 283 283 283 282 280 273 267 266 265 262 257 252 251 251 250 257 259 261 263 264 263 265 267 265
264 262 260 259 261 260 255 255 255 260 261 259 262 266 276 283 282 281 282 286 287 286 287 290 289 286 285 285 283 278 274 270 270 268 262 260 255 253 254 252 254 255 257 259 262 263 265 265 264
266 261 260 257 257 257 255 255 253 255 259 262 264 260 269 276 275 272 274 280 284 286 286 288 289 288 286 285 285 281 276 273 271 270 266 262 258 256 254 254 255 256 257 259 261 264 264 263 264
269 263 261 259 259 256 255 254 253 252 258 262 265 265 266 271 272 268 268 272 280 284 284 287 288 285 283 282 285 281 278 276 276 272 269 267 262 258 255 256 259 258 259 261 265 264 262 264 263
273 267 264 263 264 262 260 259 257 254 255 260 262 263 266 270 270 268 266 270 271 278 283 282 284 280 281 281 282 286 283 278 277 273 269 268 264 259 257 258 259 261 262 264 264 265 265 265 268
270 269 267 264 267 269 266 261 259 261 259 258 259 261 262 265 267 266 268 266 264 270 277 278 280 278 280 282 283 284 284 276 274 274 271 269 268 263 261 262 263 263 264 265 266 265 266 267 269
269 269 268 268 270 270 268 266 261 260 260 259 259 259 261 264 267 265 266 266 264 267 271 274 276 276 278 280 282 282 280 276 275 274 272 269 267 265 264 266 267 266 264 264 265 264 266 269 270
270 272 272 273 273 273 273 271 266 263 261 262 263 261 263 263 264 265 267 269 268 267 268 271 274 273 274 277 279 280 280 278 277 275 273 272 270 268 267 267 267 267 266 265 265 265 268 270 271
270 273 274 275 276 279 276 272 270 268 264 262 263 262 263 264 265 266 268 270 270 268 267 269 273 273 272 274 276 277 277 277 276 275 274 275 273 272 270 268 266 267 266 265 266 268 269 269 270
271 273 275 278 280 281 278 276 274 271 269 267 264 264 266 266 266 267 268 268 268 267 269 269 271 274 273 276 277 276 275 275 275 274 275 276 275 274 270 268 268 268 268 268 269 270 272 270 272
271 273 276 278 281 281 280 276 274 272 272 271 268 266 265 266 266 269 269 267 267 266 269 270 269 271 272 275 278 276 274 274 273 274 274 275 274 273 270 268 270 269 268 269 269 271 274 274 275
271 274 274 277 281 283 282 279 276 276 276 277 271 266 266 268 267 268 268 267 267 267 267 268 267 268 270 272 275 277 274 272 272 272 271 272 273 272 269 268 269 270 270 269 270 272 274 276 276
271 272 274 276 279 282 283 282 280 277 279 279 277 273 268 269 271 272 272 268 268 267 267 266 266 267 269 270 272 273 273 272 271 270 270 269 270 269 269 270 270 270 270 269 270 273 275 276 277
270 274 276 276 279 282 283 282 281 278 278 276 276 275 272 271 271 270 273 273 271 270 268 268 268 268 268 267 268 269 268 270 271 270 269 269 268 267 269 271 272 271 272 271 271 272 273 275 277
Height
5853 5853 5853 5854 5855 5854 5853 5853 5853 5853 5853 5853 5853 5853 5853 5854 5855 5858 5856 5855 5856 5857 5858 5859 5859 5860 5861 5861 5862 5863 5864 5864 5865 5866 5867 5868 5868 5869 5871 5871 5872 5873 5874 5875 5876 5877 5878 5878 5879
5853 5853 5854 5854 5854 5853 5854 5853 5852 5852 5852 5852 5852 5852 5852 5853 5854 5854 5854 5854 5855 5856 5856 5857 5858 5858 5859 5859 5860 5861 5862 5863 5863 5864 5865 5867 5867 5868 5869 5870 5871 5872 5873 5874 5875 5876 5877 5878 5878
5853 5853 5854 5854 5853 5853 5853 5853 5852 5852 5852 5852 5852 5852 5852 5852 5853 5853 5853 5853 5854 5854 5855 5856 5856 5857 5857 5858 5858 5858 5859 5860 5862 5863 5864 5865 5866 5867 5868 5869 5870 5871 5872 5873 5874 5875 5876 5876 5877
5853 5854 5854 5854 5853 5853 5852 5852 5852 5852 5852 5852 5852 5852 5851 5852 5852 5852 5852 5853 5853 5853 5854 5854 5855 5855 5855 5855 5854 5854 5855 5857 5859 5861 5862 5863 5864 5865 5866 5867 5868 5869 5870 5872 5873 5874 5874 5875 5876
5853 5853 5853 5853 5852 5852 5852 5852 5852 5852 5852 5851 5851 5851 5851 5852 5851 5852 5852 5852 5852 5852 5852 5853 5853 5853 5853 5853 5851 5851 5852 5855 5857 5859 5860 5862 5863 5864 5864 5866 5867 5868 5869 5870 5871 5872 5873 5874 5874
5853 5853 5853 5853 5852 5852 5852 5852 5851 5851 5851 5851 5851 5851 5851 5851 5851 5851 5851 5851 5851 5851 5851 5851 5851 5852 5852 5851 5850 5851 5852 5854 5855 5857 5858 5860 5861 5862 5863 5864 5865 5866 5867 5868 5869 5870 5871 5872 5873
5853 5852 5852 5852 5852 5852 5852 5851 5851 5851 5851 5851 5851 5851 5851 5851 5850 5850 5850 5850 5850 5850 5850 5850 5850 5851 5851 5850 5850 5850 5851 5853 5854 5855 5856 5858 5859 5860 5861 5862 5863 5864 5865 5866 5867 5868 5869 5870 5871
5851 5852 5851 5851 5852 5852 5852 5851 5851 5851 5850 5851 5850 5850 5850 5850 5850 5850 5850 5850 5849 5849 5849 5850 5850 5850 5850 5850 5850 5850 5851 5852 5853 5854 5854 5856 5857 5858 5859 5860 5861 5862 5862 5864 5865 5866 5867 5868 5869
5851 5852 5851 5851 5851 5852 5851 5851 5851 5850 5850 5850 5850 5850 5850 5850 5849 5849 5849 5849 5849 5849 5849 5849 5849 5849 5849 5849 5850 5850 5850 5851 5851 5852 5853 5854 5855 5856 5857 5858 5858 5859 5860 5861 5862 5863 5864 5865 5866
5850 5851 5851 5851 5851 5851 5851 5851 5851 5850 5850 5850 5849 5849 5849 5849 5848 5848 5848 5848 5848 5848 5848 5848 5848 5848 5848 5848 5849 5849 5849 5850 5850 5851 5851 5852 5853 5854 5855 5856 5856 5857 5858 5859 5860 5861 5862 5863 5864
5849 5849 5850 5850 5850 5850 5850 5850 5850 5850 5850 5849 5849 5849 5848 5848 5848 5848 5848 5847 5847 5847 5847 5847 5847 5847 5847 5847 5848 5848 5848 5848 5849 5849 5850 5851 5851 5852 5853 5854 5854 5855 5856 5857 5858 5859 5860 5861 5862
5848 5848 5849 5849 5849 5849 5849 5849 5849 5849 5849 5849 5848 5848 5847 5847 5847 5847 5847 5847 5846 5846 5846 5846 5846 5847 5847 5847 5847 5847 5847 5847 5848 5848 5849 5849 5850 5851 5851 5852 5852 5853 5854 5855 5855 5856 5857 5858 5859
5847 5847 5847 5848 5848 5848 5848 5848 5848 5848 5848 5848 5847 5847 5847 5847 5846 5846 5846 5846 5845 5845 5845 5846 5846 5846 5846 5846 5846 5846 5846 5846 5846 5847 5847 5848 5848 5849 5849 5850 5851 5851 5852 5853 5853 5854 5855 5855 5856
5846 5846 5846 5846 5847 5847 5847 5847 5848 5847 5847 5847 5847 5846 5846 5846 5846 5845 5845 5845 5845 5845 5845 5845 5845 5845 5845 5845 5845 5845 5845 5845 5845 5845 5846 5846 5847 5847 5848 5848 5849 5849 5850 5851 5851 5852 5852 5853 5854
5844 5845 5845 5845 5846 5846 5846 5846 5846 5846 5846 5846 5846 5846 5845 5845 5845 5845 5844 5844 5844 5844 5844 5844 5844 5844 5844 5844 5843 5843 5843 5843 5843 5844 5844 5844 5845 5845 5846 5846 5847 5847 5848 5848 5849 5849 5850 5851 5851
5843 5843 5844 5844 5844 5844 5846 5846 5845 5845 5845 5845 5845 5845 5845 5844 5844 5844 5844 5843 5843 5843 5843 5843 5843 5842 5842 5842 5842 5842 5842 5842 5842 5842 5842 5843 5843 5843 5844 5844 5845 5845 5846 5846 5846 5847 5847 5848 5848
5841 5841 5842 5843 5843 5843 5844 5844 5844 5844 5844 5844 5844 5844 5844 5843 5843 5843 5842 5842 5842 5842 5841 5841 5841 5841 5841 5841 5841 5841 5841 5840 5840 5840 5841 5841 5841 5842 5842 5842 5843 5843 5844 5844 5844 5844 5844 5845 5845
5839 5839 5840 5841 5841 5841 5841 5842 5842 5842 5843 5843 5843 5843 5842 5842 5842 5842 5841 5841 5841 5841 5840 5840 5840 5840 5840 5840 5839 5839 5839 5839 5839 5839 5839 5839 5839 5840 5840 5840 5841 5841 5841 5842 5842 5842 5842 5842 5842
5837 5837 5838 5839 5838 5839 5839 5840 5840 5840 5841 5841 5841 5841 5841 5841 5841 5840 5840 5840 5840 5840 5839 5839 5839 5839 5838 5838 5838 5838 5837 5837 5837 5837 5837 5837 5837 5837 5838 5838 5839 5839 5839 5839 5839 5840 5840 5840 5840
5835 5835 5836 5836 5836 5837 5837 5838 5838 5838 5839 5839 5839 5839 5839 5839 5839 5839 5838 5838 5838 5838 5838 5837 5837 5837 5836 5836 5836 5836 5835 5835 5835 5835 5834 5835 5835 5835 5835 5836 5836 5836 5837 5837 5837 5837 5837 5837 5837
5833 5833 5834 5834 5835 5834 5835 5836 5836 5836 5837 5837 5837 5837 5838 5837 5837 5837 5837 5836 5836 5836 5836 5836 5835 5835 5835 5834 5834 5833 5833 5833 5833 5832 5832 5832 5832 5833 5833 5833 5833 5834 5834 5834 5834 5834 5834 5835 5835
5832 5832 5832 5832 5833 5833 5833 5833 5834 5834 5835 5835 5835 5835 5835 5835 5835 5835 5835 5834 5834 5834 5834 5833 5833 5833 5832 5832 5831 5831 5831 5830 5830 5830 5830 5830 5830 5830 5830 5830 5830 5831 5831 5831 5831 5831 5831 5831 5832
5830 5829 5830 5830 5830 5830 5831 5830 5832 5832 5832 5832 5832 5832 5832 5833 5832 5832 5832 5832 5831 5831 5831 5831 5831 5830 5830 5829 5829 5828 5828 5828 5828 5827 5827 5827 5827 5827 5827 5827 5827 5827 5828 5828 5828 5828 5828 5828 5828
5827 5828 5827 5827 5828 5828 5828 5828 5828 5829 5829 5829 5829 5829 5829 5829 5829 5829 5829 5829 5828 5828 5828 5828 5827 5827 5827 5826 5826 5826 5825 5825 5825 5824 5824 5824 5824 5824 5824 5824 5824 5824 5824 5824 5824 5824 5824 5824 5824
5825 5826 5826 5825 5825 5826 5825 5825 5826 5826 5826 5826 5826 5826 5826 5826 5826 5826 5826 5825 5825 5825 5824 5824 5824 5824 5823 5823 5823 5822 5822 5821 5821 5821 5821 5821 5820 5820 5820 5820 5820 5820 5820 5820 5820 5820 5820 5820 5820
5823 5823 5824 5823 5822 5822 5822 5822 5823 5823 5822 5823 5823 5823 5822 5822 5822 5822 5822 5821 5821 5821 5821 5821 5820 5820 5820 5819 5819 5818 5818 5818 5817 5817 5817 5817 5817 5816 5816 5816 5816 5816 5816 5816 5816 5816 5816 5816 5816
5819 5819 5820 5819 5818 5818 5818 5819 5819 5819 5819 5819 5818 5818 5818 5818 5818 5818 5817 5817 5817 5817 5817 5816 5816 5816 5815 5815 5815 5814 5814 5813 5813 5813 5813 5813 5813 5812 5812 5812 5812 5812 5812 5812 5812 5812 5812 5812 5811
5816 5816 5815 5815 5814 5814 5814 5815 5816 5815 5814 5814 5813 5813 5813 5813 5813 5813 5813 5813 5812 5812 5812 5811 5811 5810 5810 5810 5810 5809 5809 5809 5809 5808 5808 5808 5808 5808 5808 5808 5808 5808 5808 5808 5808 5808 5807 5807 5807
5812 5812 5811 5811 5810 5810 5810 5813 5811 5810 5810 5810 5809 5809 5809 5809 5808 5808 5808 5808 5807 5807 5807 5806 5806 5805 5805 5804 5804 5804 5803 5803 5803 5803 5803 5803 5803 5803 5803 5803 5803 5803 5803 5803 5803 5803 5802 5802 5802
5807 5807 5807 5807 5806 5806 5805 5809 5806 5806 5805 5804 5804 5804 5803 5803 5803 5802 5802 5802 5802 5801 5801 5800 5800 5799 5799 5798 5798 5798 5798 5797 5797 5797 5797 5797 5797 5797 5798 5798 5798 5798 5798 5797 5797 5797 5797 5796 5796